Cleveland, TX

2:10 PM CDT on August 29, 2016 (GMT -0500)
Cleveland

Weather History for K6R3 - March, 2013

Change the Weather History Date:

Wednesday, March 27, 2013

  Actual Average (KCXO) Record (KCXO)
Temperature  
Mean Temperature 50 °F -  
Max Temperature 71 °F 71 °F 84 °F (2007)
Min Temperature 30 °F 50 °F 28 °F (2013)
Degree Days  
Heating Degree Days 14    
Moisture  
Dew Point 35 °F    
Average Humidity 60    
Maximum Humidity 94    
Minimum Humidity 24    
Precipitation  
Precipitation 0.00 in - - ()
Sea Level Pressure  
Sea Level Pressure 30.32 in    
Wind  
Wind Speed 3 mph (South)    
Max Wind Speed 14 mph    
Max Gust Speed 22 mph    
Averages and records for this station are not official NWS values.
T = Trace of Precipitation, MM = Missing Value Source: NWS Daily Summary

Daily Weather History Graph

Daily Weather History Graph

Search for Another Location

Airport or City:

Trip Planner

Search our weather history database for the weather conditions in past years. The results will help you decide how hot, cold, wet, or windy it might be!

Date:

Astronomy

Mar. 27, 2013 Rise Set
Actual Time 7:14 AM CDT 7:36 PM CDT
Civil Twilight 6:50 AM CDT 8:00 PM CDT
Nautical Twilight 6:22 AM CDT 8:28 PM CDT
Astronomical Twilight 5:54 AM CDT 8:56 PM CDT
Moon 8:14 PM CDT (3/27) 7:09 AM CDT (3/27)
Length of Visible Light 13h 09m
Length of Day
12h 21m
Full, 100% of the Moon is Illuminated
Mar 27
Full
Apr 2
Last Quarter
Apr 10
New
Apr 18
First Quarter
Apr 25
Full

Hourly Weather History & Observations

Time (CDT) Temp. Dew Point Humidity Pressure Visibility Wind Dir Wind Speed Gust Speed Precip Events Conditions
12:15 AM 35.2 °F 31.1 °F 85% 30.38 in - Calm Calm - N/A   Unknown
12:35 AM 35.1 °F 31.3 °F 86% 30.37 in - Calm Calm - N/A   Unknown
12:55 AM 34.2 °F 30.9 °F 88% 30.37 in - Calm Calm - N/A   Unknown
1:15 AM 33.8 °F 31.3 °F 90% 30.36 in - Calm Calm - N/A   Unknown
1:35 AM 33.6 °F 31.1 °F 90% 30.36 in - Calm Calm - N/A   Unknown
1:55 AM 33.1 °F 30.6 °F 90% 30.36 in - Calm Calm - N/A   Unknown
2:15 AM 32.9 °F 30.6 °F 91% 30.35 in - Calm Calm - N/A   Unknown
2:35 AM 33.3 °F 30.9 °F 91% 30.35 in - Calm Calm - N/A   Unknown
2:55 AM 32.2 °F 30.2 °F 92% 30.34 in - Calm Calm - N/A   Unknown
3:15 AM 32.0 °F 29.8 °F 92% 30.34 in - Calm Calm - N/A   Unknown
3:35 AM 32.4 °F 30.2 °F 92% 30.34 in - Calm Calm - N/A   Unknown
3:55 AM 32.0 °F 30.0 °F 92% 30.34 in - Calm Calm - N/A   Unknown
4:15 AM 32.0 °F 30.2 °F 93% 30.34 in - Calm Calm - N/A   Unknown
4:35 AM 31.8 °F 29.8 °F 92% 30.33 in - Calm Calm - N/A   Unknown
4:55 AM 31.6 °F 29.3 °F 91% 30.33 in - Calm Calm - N/A   Unknown
5:15 AM 31.1 °F 29.3 °F 93% 30.33 in - Calm Calm - N/A   Unknown
5:35 AM 31.1 °F 29.3 °F 93% 30.34 in - Calm Calm - N/A   Unknown
5:55 AM 31.1 °F 28.9 °F 92% 30.35 in - Calm Calm - N/A   Unknown
6:15 AM 30.9 °F 28.9 °F 92% 30.34 in - Calm Calm - N/A   Unknown
6:35 AM 30.6 °F 28.6 °F 92% 30.36 in - Calm Calm - N/A   Unknown
6:55 AM 30.7 °F 28.8 °F 92% 30.36 in - Calm Calm - N/A   Unknown
7:15 AM 30.6 °F 28.6 °F 92% 30.37 in - Calm Calm - N/A   Unknown
7:35 AM 30.9 °F 28.9 °F 92% 30.37 in - Calm Calm - N/A   Unknown
7:55 AM 31.6 °F 29.8 °F 93% 30.39 in - Calm Calm - N/A   Unknown
8:15 AM 33.3 °F 31.6 °F 94% 30.38 in - Calm Calm - N/A   Unknown
8:35 AM 39.2 °F 32.0 °F 75% 30.39 in - Calm Calm - N/A   Clear
8:55 AM 44.2 °F 33.3 °F 65% 30.39 in - Calm Calm - N/A   Clear
9:15 AM 48.7 °F 34.3 °F 58% 30.39 in - Calm Calm - N/A   Clear
9:35 AM 52.3 °F 34.0 °F 50% 30.39 in - ESE 4.6 mph - N/A   Clear
9:55 AM 55.0 °F 34.0 °F 45% 30.39 in - SSE 3.5 mph - N/A   Clear
10:15 AM 57.4 °F 33.6 °F 41% 30.40 in - SSE 4.6 mph - N/A   Clear
10:35 AM 59.2 °F 34.2 °F 39% 30.40 in - SE 3.5 mph - N/A   Clear
10:55 AM 59.9 °F 34.0 °F 38% 30.40 in - SSE 4.6 mph - N/A   Clear
11:15 AM 61.9 °F 34.9 °F 36% 30.39 in - SSE 5.8 mph - N/A   Clear
11:35 AM 62.8 °F 34.0 °F 34% 30.38 in - SSE 5.8 mph - N/A   Clear
11:55 AM 64.8 °F 34.2 °F 32% 30.38 in - SE 6.9 mph - N/A   Clear
12:15 PM 64.8 °F 32.7 °F 30% 30.37 in - South 5.8 mph - N/A   Clear
12:35 PM 65.8 °F 33.1 °F 30% 30.36 in - SSE 8.1 mph - N/A   Clear
12:55 PM 66.6 °F 33.1 °F 29% 30.36 in - SSE 6.9 mph - N/A   Clear
1:15 PM 68.0 °F 33.8 °F 28% 30.35 in - SSE 6.9 mph - N/A   Clear
1:35 PM 68.5 °F 33.1 °F 27% 30.33 in - South 6.9 mph - N/A   Clear
1:55 PM 69.8 °F 32.7 °F 25% 30.32 in - South 10.4 mph - N/A   Clear
2:15 PM 70.9 °F 32.4 °F 24% 30.31 in - SSW 8.1 mph - N/A   Clear
2:35 PM 69.8 °F 32.2 °F 25% 30.30 in - South 11.5 mph 17.3 mph N/A   Clear
2:55 PM 71.1 °F 32.9 °F 25% 30.29 in - South 10.4 mph - N/A   Clear
3:15 PM 70.9 °F 32.9 °F 25% 30.28 in - South 9.2 mph 19.6 mph N/A   Clear
3:35 PM 71.1 °F 33.8 °F 25% 30.27 in - South 9.2 mph - N/A   Clear
3:55 PM 70.5 °F 33.6 °F 26% 30.26 in - SSW 9.2 mph 19.6 mph N/A   Clear
4:15 PM 71.2 °F 34.3 °F 26% 30.26 in - South 10.4 mph 17.3 mph N/A   Clear
4:35 PM 70.3 °F 34.0 °F 26% 30.25 in - South 11.5 mph 17.3 mph N/A   Clear
4:55 PM 69.4 °F 35.2 °F 28% 30.24 in - South 11.5 mph 18.4 mph N/A   Clear
5:15 PM 69.1 °F 36.0 °F 30% 30.23 in - South 10.4 mph - N/A   Clear
5:35 PM 68.4 °F 36.7 °F 31% 30.23 in - South 10.4 mph - N/A   Clear
5:55 PM 67.1 °F 38.1 °F 34% 30.23 in - South 9.2 mph 17.3 mph N/A   Clear
6:15 PM 65.5 °F 38.3 °F 37% 30.23 in - South 12.7 mph 17.3 mph N/A   Clear
6:35 PM 64.4 °F 38.8 °F 39% 30.23 in - South 12.7 mph 17.3 mph N/A   Clear
6:55 PM 62.6 °F 40.1 °F 44% 30.23 in - South 10.4 mph 21.9 mph N/A   Clear
7:15 PM 60.6 °F 41.0 °F 48% 30.24 in - South 13.8 mph 18.4 mph N/A   Clear
7:35 PM 58.6 °F 41.2 °F 52% 30.24 in - South 10.4 mph 17.3 mph N/A   Clear
7:55 PM 57.2 °F 41.5 °F 56% 30.25 in - South 9.2 mph - N/A   Clear
8:15 PM 56.3 °F 41.5 °F 58% 30.25 in - South 8.1 mph - N/A   Clear
8:35 PM 55.8 °F 41.5 °F 59% 30.26 in - South 8.1 mph - N/A   Clear
8:55 PM 55.4 °F 41.9 °F 60% 30.26 in - South 6.9 mph - N/A   Clear
9:15 PM 55.9 °F 42.1 °F 60% 30.26 in - South 6.9 mph - N/A   Mostly Cloudy
9:35 PM 56.1 °F 42.3 °F 60% 30.27 in - SSE 5.8 mph - N/A   Overcast
9:55 PM 56.3 °F 42.8 °F 61% 30.28 in - SSE 5.8 mph - N/A   Overcast
10:15 PM 55.9 °F 43.0 °F 62% 30.28 in - South 5.8 mph - N/A   Overcast
10:35 PM 55.8 °F 43.0 °F 62% 30.28 in - SSE 4.6 mph - N/A   Overcast
10:55 PM 55.4 °F 43.2 °F 63% 30.28 in - SSE 4.6 mph - N/A   Overcast
11:15 PM 55.0 °F 43.7 °F 66% 30.27 in - SSE 4.6 mph - N/A   Overcast
11:35 PM 54.7 °F 43.7 °F 66% 30.27 in - SSE 3.5 mph - N/A   Overcast
11:55 PM 53.8 °F 43.9 °F 69% 30.27 in - Calm Calm - N/A   Overcast